ORBCOMM FM109 [+]

Last updated on Fri Dec 29 2023 00:02:54 GMT+0000 (Coordinated Universal Time)

1 40086U 14040A 23362.11156211 .00001387 00000+0 34822-3 0 9991 2 40086 47.0051 28.7963 0002182 336.5179 23.5606 14.56206880502851
UTC large
Height (km)
Speed (km/s)
/
Latitude / Longitude
Inclination (degrees)
Orbital Period (minutes)
Azimuth
Elevation
Range (km)
Doppler Factor

Next 0 passes for location: London (51.5072 / 0.1276)

Sorry there are no passes over London.
ORBCOMM FM109 [+]